[[{"header":{"parameterUnit":"m.s-1","parameterCategory":1,"la1":30.2992,"la2":30.254,"lo1":-89.0895,"lo2":-89.0443,"dy":0.0025,"dx":0.0025,"nx":19,"ny":19,"refTime":"2026-05-01T09:00:00:Z","depth":0,"parameterNumber":2,"parameterNumberName":"U-component_of_WINDS"},"data":[0,0,0,-2.8829,-2.8832,-2.8958,-2.8959,-2.9138,-2.914,0,0,0,0,0,0,0,0,0,0,0,-2.8803,-2.8805,-2.8828,-2.8832,-2.8958,-2.8959,-2.9138,-2.914,0,0,0,0,0,0,0,0,0,0,0,-2.8802,-2.8804,-2.8806,-2.8832,-2.8958,-2.8959,-2.9138,-2.9036,0,0,0,0,0,0,0,0,0,0,-2.891,-2.8898,-2.8804,-2.8806,-2.8833,-2.8958,-2.8959,-2.903,-2.9042,-2.9089,0,-2.9135,0,-2.9141,-2.9154,-2.9154,0,0,0,-2.8823,-2.8888,-2.8912,-2.8806,-2.8834,-2.8958,-2.8899,-2.9037,-2.905,-2.9105,-2.9137,-2.9143,-2.9144,-2.9155,-2.9156,-2.9459,-2.9461,0,0,-2.8816,-2.8832,-2.8903,-2.8921,-2.8903,-2.8895,-2.8903,-2.9044,-2.9081,-2.9138,-2.9147,-2.9147,-2.9156,-2.9158,-2.9457,-2.9459,0,0,0,-2.8802,-2.8828,-2.8847,-2.8914,-2.8935,-2.8899,-2.8908,-2.9074,-2.9079,-2.9149,-2.9149,-2.9157,-2.916,-2.9455,-2.9458,-2.9566,0,0,0,-2.8797,-2.8819,-2.8844,-2.8856,-2.8933,-2.9007,-2.8935,-2.907,-2.9085,-2.9148,-2.9157,-2.9162,-2.9453,-2.9457,-2.9559,-2.9615,0,0,0,-2.8791,-2.8818,-2.8841,-2.8856,-2.8911,-2.9004,-2.9017,-2.9073,-2.9086,-2.9154,-2.9162,-2.9452,-2.9456,-2.9552,-2.9604,-2.9701,0,0,0,-2.8788,-2.8934,-2.8843,-2.9005,-2.891,-2.9069,-2.9016,-2.9133,-2.9205,-2.9158,-2.9453,-2.9458,-2.955,-2.9598,-2.9694,-2.9788,-2.9828,0,0,-2.8981,-2.8958,-2.9052,-2.8974,-2.9154,-2.9049,-2.9244,-2.9294,-2.9285,-2.9401,-2.9408,-2.9561,-2.9604,-2.97,-3.004,-3.0072,0,0,0,-2.9119,-2.9187,-2.9231,-2.9301,-2.9343,-2.9383,-2.9402,-2.942,-2.9518,-2.9348,-2.962,-2.9645,-2.9701,-2.9745,-2.9772,-2.982,-2.9478,-2.9477,-2.9477,-2.9417,-2.9398,-2.9553,-2.955,-2.9618,-2.9635,-2.9688,-2.9715,-2.9676,-2.974,-2.9776,-2.9985,-3.0037,-3.0057,-3.0107,-2.9821,-2.9821,-2.9822,-2.9822,-2.9701,-2.9796,-2.9739,-2.987,-2.9848,-2.9957,-2.9979,-2.9947,-3.0045,-2.9956,-3.0004,-2.9911,-3.0092,-3.0135,-2.983,-2.9829,-2.9828,-2.9827,-2.9826,-2.9897,-2.9939,-2.9958,-3.0057,-3.0134,-3.0124,-3.0222,-3.0197,-3.0175,-3.0223,-3.0259,-3.0257,-3.0254,-3.0241,-3.0242,-3.0242,-3.0243,-3.0243,-3.0244,-3.0094,-3.0112,-3.0198,-3.0254,-3.0295,-3.0346,-3.0363,-3.0403,-3.0441,-3.0416,-3.0416,-3.0372,-3.0112,-3.0049,-3.0255,-3.0253,-3.0252,-3.0251,-3.025,-3.0393,-3.0321,-3.0454,-3.0496,-3.0559,-3.0638,-3.0605,-3.0688,-3.0717,-3.0766,-3.071,-3.0521,-3.0496,-3.0474,-3.0422,-3.0712,-3.0712,-3.0712,-3.0712,-3.0561,-3.0545,-3.0675,-3.0743,-3.0807,-3.079,-3.0941,-3.0955,-3.0958,-3.0974,-3.0928,-3.0856,-3.0834,-3.0822,-3.0792,-3.0744,-3.1109,-3.1109,-3.111,-3.0746,-3.0734,-3.0868,-3.087,-3.0918,-3.0959,-3.11,-3.118,-3.1167,-3.1125,-3.0987,-3.0971,-3.0853,-3.0816,-3.0775,-3.073,-3.064,0,0]},{"header":{"parameterUnit":"m.s-1","parameterCategory":1,"la1":30.2992,"la2":30.254,"lo1":-89.0895,"lo2":-89.0443,"dy":0.0025,"dx":0.0025,"nx":19,"ny":19,"refTime":"2026-05-01T09:00:00:Z","depth":0,"parameterNumber":3,"parameterNumberName":"V-component_of_WINDS"},"data":[0,0,0,-5.2902,-5.2903,-5.2934,-5.2934,-5.2994,-5.2995,0,0,0,0,0,0,0,0,0,0,0,-5.2906,-5.2907,-5.2902,-5.2903,-5.2934,-5.2934,-5.2994,-5.2995,0,0,0,0,0,0,0,0,0,0,0,-5.2906,-5.2907,-5.2908,-5.2903,-5.2934,-5.2934,-5.2994,-5.2963,0,0,0,0,0,0,0,0,0,0,-5.2929,-5.2947,-5.2907,-5.2908,-5.2903,-5.2934,-5.2934,-5.2961,-5.2965,-5.2989,0,-5.3016,0,-5.3006,-5.3,-5.3001,0,0,0,-5.2893,-5.2944,-5.294,-5.2908,-5.2904,-5.2934,-5.2917,-5.2963,-5.2967,-5.2995,-5.3016,-5.3018,-5.3007,-5.3001,-5.3001,-5.3177,-5.3178,0,0,-5.2891,-5.2919,-5.2937,-5.2943,-5.2941,-5.2916,-5.2918,-5.2965,-5.2991,-5.3016,-5.3019,-5.3008,-5.3001,-5.3002,-5.3176,-5.3177,0,0,0,-5.2893,-5.2919,-5.2913,-5.2941,-5.2945,-5.2917,-5.2919,-5.2988,-5.2984,-5.3019,-5.3009,-5.3002,-5.3003,-5.3174,-5.3176,-5.3267,0,0,0,-5.2891,-5.2919,-5.2912,-5.293,-5.2945,-5.2968,-5.2942,-5.2981,-5.2985,-5.3009,-5.3002,-5.3004,-5.3173,-5.3175,-5.3261,-5.3305,0,0,0,-5.29,-5.292,-5.2929,-5.2932,-5.2946,-5.2966,-5.2964,-5.2981,-5.298,-5.3001,-5.3004,-5.3172,-5.3175,-5.3256,-5.3297,-5.3358,0,0,0,-5.2916,-5.3011,-5.2931,-5.3032,-5.2946,-5.3022,-5.2964,-5.3019,-5.3048,-5.3002,-5.3173,-5.3176,-5.3255,-5.3291,-5.3353,-5.3414,-5.3443,0,0,-5.3051,-5.3028,-5.3085,-5.3015,-5.3112,-5.3015,-5.3126,-5.3126,-5.3103,-5.3153,-5.3157,-5.3263,-5.3296,-5.3357,-5.3594,-5.3617,0,0,0,-5.3137,-5.3179,-5.3198,-5.3227,-5.3229,-5.3233,-5.3213,-5.3213,-5.3254,-5.3135,-5.3301,-5.332,-5.3355,-5.3383,-5.3402,-5.3429,-5.3191,-5.319,-5.319,-5.3369,-5.3332,-5.3424,-5.3391,-5.3419,-5.3396,-5.3416,-5.3411,-5.3368,-5.3407,-5.3422,-5.357,-5.3604,-5.3619,-5.3647,-5.3452,-5.3453,-5.3453,-5.3453,-5.3562,-5.3614,-5.3551,-5.3617,-5.3578,-5.3633,-5.3614,-5.3581,-5.3626,-5.3557,-5.3585,-5.3513,-5.3645,-5.3668,-5.346,-5.3459,-5.3458,-5.3457,-5.3457,-5.3709,-5.3727,-5.3724,-5.376,-5.3791,-5.3754,-5.38,-5.3763,-5.3728,-5.3756,-5.3767,-5.3765,-5.3758,-5.3764,-5.3765,-5.3765,-5.3766,-5.3766,-5.3766,-5.3862,-5.3856,-5.3898,-5.3907,-5.3918,-5.393,-5.3906,-5.3917,-5.3919,-5.3889,-5.3889,-5.384,-5.3665,-5.3621,-5.3774,-5.3773,-5.3772,-5.3771,-5.377,-5.407,-5.4017,-5.4083,-5.4094,-5.4099,-5.4132,-5.4083,-5.4108,-5.4111,-5.4134,-5.4079,-5.3956,-5.393,-5.3914,-5.3877,-5.4088,-5.4088,-5.4088,-5.4088,-5.4194,-5.4176,-5.4233,-5.4254,-5.4271,-5.4233,-5.4307,-5.4289,-5.4262,-5.4262,-5.4226,-5.4174,-5.416,-5.4142,-5.4122,-5.4087,-5.4345,-5.4346,-5.4346,-5.4319,-5.4301,-5.4371,-5.4343,-5.4343,-5.4344,-5.4412,-5.4438,-5.4397,-5.4355,-5.426,-5.4249,-5.4166,-5.4141,-5.4097,-5.4066,-5.4001,0,0]}]]